2015-12-01 00:02:53 r, 17.96m,0000000006Hz,0000079489c,0000000.173s, 013.5C,00002195
2015-12-01 00:12:53 r, 17.97m,0000000005Hz,0000080477c,0000000.175s, 013.5C,00002195
2015-12-01 00:22:53 r, 17.95m,0000000006Hz,0000078859c,0000000.171s, 013.5C,00002195
2015-12-01 00:32:54 r, 17.93m,0000000006Hz,0000077691c,0000000.169s, 013.5C,00002195
2015-12-01 00:42:54 r, 17.93m,0000000006Hz,0000077811c,0000000.169s, 013.2C,00002195
2015-12-01 00:52:53 r, 17.94m,0000000006Hz,0000078703c,0000000.171s, 013.5C,00002195
2015-12-01 01:02:54 r, 17.94m,0000000006Hz,0000078722c,0000000.171s, 013.2C,00002195
2015-12-01 01:12:53 r, 17.96m,0000000005Hz,0000080263c,0000000.174s, 013.2C,00002195
2015-12-01 01:22:54 r, 17.96m,0000000005Hz,0000079772c,0000000.173s, 013.2C,00002195
2015-12-01 01:32:53 r, 17.96m,0000000006Hz,0000079578c,0000000.173s, 013.2C,00002195
2015-12-01 01:42:53 r, 17.96m,0000000006Hz,0000079399c,0000000.172s, 013.2C,00002195
2015-12-01 01:52:55 r, 17.95m,0000000006Hz,0000079304c,0000000.172s, 013.2C,00002195
2015-12-01 02:02:54 r, 17.93m,0000000006Hz,0000077744c,0000000.169s, 013.2C,00002195
2015-12-01 02:12:53 r, 17.93m,0000000006Hz,0000077734c,0000000.169s, 013.2C,00002195
2015-12-01 02:22:55 r, 17.92m,0000000006Hz,0000076872c,0000000.167s, 013.2C,00002195
2015-12-01 02:32:54 r, 17.91m,0000000006Hz,0000076039c,0000000.165s, 013.2C,00002195
2015-12-01 02:42:53 r, 17.89m,0000000006Hz,0000074914c,0000000.163s, 013.2C,00002195
2015-12-01 02:52:54 r, 17.88m,0000000006Hz,0000073756c,0000000.160s, 013.2C,00002195
2015-12-01 03:02:53 r, 17.82m,0000000006Hz,0000070116c,0000000.152s, 013.2C,00002195
2015-12-01 03:12:53 r, 17.53m,0000000008Hz,0000053603c,0000000.116s, 013.2C,00002195
2015-12-01 03:22:54 r, 17.55m,0000000008Hz,0000054610c,0000000.119s, 012.8C,00002195
2015-12-01 03:32:55 r, 17.34m,0000000011Hz,0000045038c,0000000.098s, 012.8C,00002195
2015-12-01 03:42:53 r, 17.71m,0000000008Hz,0000063265c,0000000.137s, 012.8C,00002195
2015-12-01 03:52:54 r, 17.75m,0000000007Hz,0000065623c,0000000.142s, 012.8C,00002195
2015-12-01 04:02:53 r, 17.76m,0000000007Hz,0000066412c,0000000.144s, 012.8C,00002195
2015-12-01 04:12:53 r, 17.76m,0000000007Hz,0000066182c,0000000.144s, 012.8C,00002195
2015-12-01 04:22:53 r, 17.75m,0000000007Hz,0000065378c,0000000.142s, 013.2C,00002195
2015-12-01 04:32:54 r, 17.71m,0000000008Hz,0000063253c,0000000.137s, 013.2C,00002195
2015-12-01 04:42:53 r, 17.66m,0000000008Hz,0000060188c,0000000.131s, 013.2C,00002195
2015-12-01 04:52:54 r, 17.53m,0000000009Hz,0000053747c,0000000.117s, 013.2C,00002195
2015-12-01 05:02:54 r, 16.78m,0000000017Hz,0000026866c,0000000.058s, 013.2C,00002195
2015-12-01 05:12:53 r, 16.70m,0000000018Hz,0000024986c,0000000.054s, 013.2C,00002195
2015-12-01 05:22:54 r, 16.77m,0000000017Hz,0000026722c,0000000.058s, 013.2C,00002195
2015-12-01 05:32:54 r, 16.72m,0000000018Hz,0000025374c,0000000.055s, 013.2C,00002195
2015-12-01 05:42:53 r, 17.15m,0000000012Hz,0000037697c,0000000.082s, 013.2C,00002195
2015-12-01 05:52:53 r, 17.45m,0000000009Hz,0000049827c,0000000.108s, 012.8C,00002195
2015-12-01 06:02:53 r, 17.33m,0000000010Hz,0000044528c,0000000.097s, 012.8C,00002195
2015-12-01 06:12:53 r, 16.77m,0000000017Hz,0000026682c,0000000.058s, 012.8C,00002195
2015-12-01 06:22:53 r, 17.02m,0000000014Hz,0000033588c,0000000.073s, 013.2C,00002195
2015-12-01 06:32:55 r, 17.71m,0000000007Hz,0000063087c,0000000.137s, 013.2C,00002195
2015-12-01 06:42:53 r, 17.35m,0000000010Hz,0000045383c,0000000.098s, 013.5C,00002195
2015-12-01 06:52:54 r, 15.78m,0000000042Hz,0000010742c,0000000.023s, 013.5C,00002195
2015-12-01 07:02:54 r, 15.46m,0000000058Hz,0000007963c,0000000.017s, 013.8C,00002195
2015-12-01 07:12:53 r, 14.85m,0000000102Hz,0000004520c,0000000.010s, 014.1C,00002195
2015-12-01 07:22:53 r, 13.66m,0000000307Hz,0000000000c,0000000.000s, 014.5C,00002195
2015-12-01 07:32:54 r, 11.93m,0000001506Hz,0000000000c,0000000.000s, 015.1C,00002195
2015-12-01 07:42:53 r, 10.09m,0000008220Hz,0000000000c,0000000.000s, 015.1C,00002195
2015-12-01 07:52:54 r, 08.67m,0000030452Hz,0000000000c,0000000.000s, 015.1C,00002195
2015-12-01 08:02:54 r, 07.70m,0000073734Hz,0000000000c,0000000.000s, 015.1C,00002195
2015-12-01 08:12:53 r, 06.86m,0000160116Hz,0000000000c,0000000.000s, 015.1C,00002195
2015-12-01 08:22:54 r, 06.30m,0000269609Hz,0000000000c,0000000.000s, 014.8C,00002195
2015-12-01 08:32:54 r, 05.97m,0000366240Hz,0000000000c,0000000.000s, 014.8C,00002195
2015-12-01 08:42:53 r, 00.00m,0000418149Hz,0000000000c,0000000.000s, 014.5C,00002195
2015-12-01 08:52:55 r, 00.00m,0000498762Hz,0000000000c,0000000.000s, 014.5C,00002195
2015-12-01 09:02:54 r, 00.00m,0000562550Hz,0000000000c,0000000.000s, 014.5C,00002195
2015-12-01 09:12:53 r, 00.00m,0000562601Hz,0000000000c,0000000.000s, 014.5C,00002195
2015-12-01 09:22:55 r, 00.00m,0000562800Hz,0000000000c,0000000.000s, 015.1C,00002195
2015-12-01 09:32:53 r, 00.00m,0000562864Hz,0000000000c,0000000.000s, 016.1C,00002195
2015-12-01 09:42:53 r, 00.00m,0000563100Hz,0000000000c,0000000.000s, 017.0C,00002195
2015-12-01 09:52:54 r, 00.00m,0000563094Hz,0000000000c,0000000.000s, 018.0C,00002195
2015-12-01 10:02:53 r, 00.00m,0000563198Hz,0000000000c,0000000.000s, 019.0C,00002195
2015-12-01 10:12:53 r, 00.00m,0000563277Hz,0000000000c,0000000.000s, 019.6C,00002195
2015-12-01 10:22:54 r, 00.00m,0000563292Hz,0000000000c,0000000.000s, 020.3C,00002195
2015-12-01 10:32:54 r, 00.00m,0000563449Hz,0000000000c,0000000.000s, 021.2C,00002195
2015-12-01 10:42:53 r, 00.00m,0000563553Hz,0000000000c,0000000.000s, 021.9C,00002195
2015-12-01 10:52:53 r, 00.00m,0000563624Hz,0000000000c,0000000.000s, 022.2C,00002195
2015-12-01 11:02:55 r, 00.00m,0000563681Hz,0000000000c,0000000.000s, 022.5C,00002195
2015-12-01 11:12:53 r, 00.00m,0000563663Hz,0000000000c,0000000.000s, 022.5C,00002195
2015-12-01 11:22:53 r, 00.00m,0000563622Hz,0000000000c,0000000.000s, 022.8C,00002195
2015-12-01 11:32:53 r, 00.00m,0000563754Hz,0000000000c,0000000.000s, 023.2C,00002195
2015-12-01 11:42:53 r, 00.00m,0000563737Hz,0000000000c,0000000.000s, 023.5C,00002195
2015-12-01 11:52:53 r, 00.00m,0000563809Hz,0000000000c,0000000.000s, 023.5C,00002195
2015-12-01 12:02:54 r, 00.00m,0000563792Hz,0000000000c,0000000.000s, 023.8C,00002195
2015-12-01 12:12:53 r, 00.00m,0000563879Hz,0000000000c,0000000.000s, 024.1C,00002195
2015-12-01 12:22:54 r, 00.00m,0000563844Hz,0000000000c,0000000.000s, 024.4C,00002195
2015-12-01 12:32:54 r, 00.00m,0000563825Hz,0000000000c,0000000.000s, 023.8C,00002195
2015-12-01 12:42:53 r, 00.00m,0000563702Hz,0000000000c,0000000.000s, 023.5C,00002195
2015-12-01 12:52:53 r, 00.00m,0000563756Hz,0000000000c,0000000.000s, 023.5C,00002195
2015-12-01 13:02:54 r, 00.00m,0000563800Hz,0000000000c,0000000.000s, 024.1C,00002195
2015-12-01 13:12:54 r, 00.00m,0000563773Hz,0000000000c,0000000.000s, 024.1C,00002195
2015-12-01 13:22:53 r, 00.00m,0000563684Hz,0000000000c,0000000.000s, 023.5C,00002195
2015-12-01 13:32:54 r, 00.00m,0000563578Hz,0000000000c,0000000.000s, 022.8C,00002195
2015-12-01 13:42:53 r, 00.00m,0000563680Hz,0000000000c,0000000.000s, 022.8C,00002195
2015-12-01 13:52:54 r, 00.00m,0000563661Hz,0000000000c,0000000.000s, 022.5C,00002195
2015-12-01 14:02:54 r, 00.00m,0000563479Hz,0000000000c,0000000.000s, 021.9C,00002195
2015-12-01 14:12:55 r, 00.00m,0000563504Hz,0000000000c,0000000.000s, 021.5C,00002195
2015-12-01 14:22:53 r, 00.00m,0000563513Hz,0000000000c,0000000.000s, 020.9C,00002195
2015-12-01 14:32:54 r, 00.00m,0000563332Hz,0000000000c,0000000.000s, 020.3C,00002195
2015-12-01 14:42:54 r, 00.00m,0000563294Hz,0000000000c,0000000.000s, 019.9C,00002195
2015-12-01 14:52:54 r, 00.00m,0000563232Hz,0000000000c,0000000.000s, 019.6C,00002195
2015-12-01 15:02:53 r, 00.00m,0000563207Hz,0000000000c,0000000.000s, 019.3C,00002195
2015-12-01 15:12:54 r, 00.00m,0000563261Hz,0000000000c,0000000.000s, 019.3C,00002195
2015-12-01 15:22:53 r, 00.00m,0000563168Hz,0000000000c,0000000.000s, 019.0C,00002195
2015-12-01 15:32:53 r, 00.00m,0000563161Hz,0000000000c,0000000.000s, 019.3C,00002195
2015-12-01 15:42:54 r, 00.00m,0000509998Hz,0000000000c,0000000.000s, 019.0C,00002195
2015-12-01 15:52:53 r, 00.00m,0000424350Hz,0000000000c,0000000.000s, 018.6C,00002195
2015-12-01 16:02:54 r, 06.07m,0000332861Hz,0000000000c,0000000.000s, 018.6C,00002195
2015-12-01 16:12:54 r, 06.44m,0000237046Hz,0000000000c,0000000.000s, 018.3C,00002195
2015-12-01 16:22:54 r, 06.97m,0000146165Hz,0000000000c,0000000.000s, 018.0C,00002195
2015-12-01 16:32:54 r, 07.73m,0000072432Hz,0000000000c,0000000.000s, 018.0C,00002195
2015-12-01 16:42:54 r, 08.83m,0000026308Hz,0000000000c,0000000.000s, 017.7C,00002195
2015-12-01 16:52:53 r, 10.38m,0000006301Hz,0000000000c,0000000.000s, 017.0C,00002195
2015-12-01 17:02:53 r, 12.27m,0000001110Hz,0000000000c,0000000.000s, 017.0C,00002195
2015-12-01 17:12:54 r, 14.17m,0000000191Hz,0000000000c,0000000.000s, 017.0C,00002195
2015-12-01 17:22:53 r, 15.84m,0000000041Hz,0000011279c,0000000.024s, 016.7C,00002195
2015-12-01 17:32:53 r, 17.03m,0000000014Hz,0000033852c,0000000.073s, 016.7C,00002195
2015-12-01 17:42:54 r, 17.70m,0000000007Hz,0000062368c,0000000.135s, 016.4C,00002195
2015-12-01 17:52:53 r, 17.94m,0000000006Hz,0000077705c,0000000.169s, 016.4C,00002195
2015-12-01 18:02:55 r, 18.01m,0000000005Hz,0000083179c,0000000.181s, 016.1C,00002195
2015-12-01 18:12:54 r, 18.04m,0000000006Hz,0000085206c,0000000.185s, 016.1C,00002195
2015-12-01 18:22:53 r, 18.04m,0000000005Hz,0000085296c,0000000.185s, 016.1C,00002195
2015-12-01 18:32:55 r, 18.05m,0000000006Hz,0000086090c,0000000.187s, 016.1C,00002195
2015-12-01 18:42:53 r, 18.04m,0000000005Hz,0000085490c,0000000.186s, 015.7C,00002195
2015-12-01 18:52:53 r, 18.04m,0000000005Hz,0000085508c,0000000.186s, 015.7C,00002195
2015-12-01 19:02:54 r, 18.04m,0000000005Hz,0000085459c,0000000.185s, 015.7C,00002195
2015-12-01 19:12:54 r, 18.05m,0000000005Hz,0000086372c,0000000.187s, 015.4C,00002195
2015-12-01 19:22:53 r, 18.04m,0000000006Hz,0000085418c,0000000.185s, 015.4C,00002195
2015-12-01 19:32:56 r, 18.04m,0000000005Hz,0000085365c,0000000.185s, 015.4C,00002195
2015-12-01 19:42:54 r, 18.04m,0000000005Hz,0000085156c,0000000.185s, 015.1C,00002195
2015-12-01 19:52:53 r, 18.04m,0000000006Hz,0000085340c,0000000.185s, 015.1C,00002195
2015-12-01 20:02:56 r, 18.03m,0000000005Hz,0000084595c,0000000.184s, 014.8C,00002195
2015-12-01 20:12:53 r, 18.03m,0000000005Hz,0000085172c,0000000.185s, 014.8C,00002195
2015-12-01 20:22:53 r, 18.01m,0000000006Hz,0000083469c,0000000.181s, 014.5C,00002195
2015-12-01 20:32:53 r, 18.01m,0000000006Hz,0000083178c,0000000.181s, 014.5C,00002195
2015-12-01 20:42:56 r, 18.00m,0000000005Hz,0000082529c,0000000.179s, 014.5C,00002195
2015-12-01 20:52:53 r, 17.99m,0000000006Hz,0000081718c,0000000.177s, 014.1C,00002195
2015-12-01 21:02:53 r, 18.01m,0000000006Hz,0000083384c,0000000.181s, 014.1C,00002195
2015-12-01 21:12:56 r, 18.01m,0000000005Hz,0000083506c,0000000.181s, 014.1C,00002195
2015-12-01 21:22:53 r, 18.01m,0000000006Hz,0000083478c,0000000.181s, 014.1C,00002195
2015-12-01 21:32:56 r, 18.02m,0000000005Hz,0000084368c,0000000.183s, 014.1C,00002195
2015-12-01 21:42:53 r, 18.03m,0000000005Hz,0000085196c,0000000.185s, 014.1C,00002195
2015-12-01 21:52:53 r, 18.02m,0000000005Hz,0000084413c,0000000.183s, 014.1C,00002195
2015-12-01 22:02:53 r, 18.03m,0000000006Hz,0000085296c,0000000.185s, 014.1C,00002195
2015-12-01 22:12:53 r, 18.01m,0000000006Hz,0000083776c,0000000.182s, 013.8C,00002195
2015-12-01 22:22:53 r, 18.01m,0000000006Hz,0000083551c,0000000.181s, 013.8C,00002195
2015-12-01 22:32:53 r, 18.01m,0000000006Hz,0000083591c,0000000.181s, 013.5C,00002195
2015-12-01 22:42:53 r, 18.02m,0000000006Hz,0000084130c,0000000.183s, 013.5C,00002195
2015-12-01 22:52:53 r, 18.02m,0000000005Hz,0000084375c,0000000.183s, 013.5C,00002195
2015-12-01 23:02:54 r, 18.02m,0000000005Hz,0000084471c,0000000.183s, 013.2C,00002195
2015-12-01 23:12:54 r, 18.03m,0000000005Hz,0000085201c,0000000.185s, 013.2C,00002195
2015-12-01 23:22:53 r, 18.03m,0000000005Hz,0000084728c,0000000.184s, 013.2C,00002195
2015-12-01 23:32:55 r, 18.03m,0000000006Hz,0000085076c,0000000.185s, 013.2C,00002195
2015-12-01 23:42:54 r, 17.99m,0000000005Hz,0000081892c,0000000.178s, 013.2C,00002195
2015-12-01 23:52:53 r, 17.99m,0000000005Hz,0000082293c,0000000.179s, 013.2C,00002195
